Home   Weather   Kigali   Past weeks

Flag for Rwanda Past Weather in Kigali, Rwanda — Yesterday and Last 2 Weeks

Now
64 °F

Light rain. Partly sunny.


Feels Like: 64 °F
Forecast: 62 / 76 °F
Wind: 10 mph from Northeast

Location: Kigali Airport

Current Time: Sep 26, 2016 at 10:54:18 AM

Latest Report: Sep 26, 2016 at 9:30 AM


Visibility: N/A

Pressure: 30.18 "Hg (25.15 "Hg at 1555m altitude)

Humidity: 94%

Dew Point: 63 °F

Location of KigaliLocation

Past Weather in Kigali — Graph

°F

Kigali Temperature Yesterday

Maximum temperature yesterday: 86 °F (at 2:00 PM)
Minimum temperature yesterday: 64 °F (at 3:30 AM)
Average temperature yesterday: 74 °F

High & Low Weather Summary for the Past Weeks

 TemperatureHumidityPressure
High88 °F (Sep 13, 3:00 PM)100% (Sep 20, 6:30 AM)30.24 "Hg (Sep 20, 6:30 AM)
Low61 °F (Sep 17, 4:00 AM)22% (Sep 13, 3:00 PM)29.95 "Hg (Sep 25, 4:00 PM)
Average74 °F57%30.12 "Hg
* Reported Sep 11 9:00 AM — Sep 26 9:30 AM, Kigali, Weather by CustomWeather, © 2016

Note: Actual official high and low records may vary slightly from our data, if they occured in-between our weather recording intervals... More about our weather records

Advertising

Kigali Weather History for the Previous 24 Hours

Scroll right to see more
 ConditionsComfort  
Time TempWeatherWind HumidityBarometerVisibility
9:30 AM
Mon, Sep 26
64 °FLight rain. Partly sunny.10 mph94%30.18 "HgN/A
8:30 AM64 °FLight rain. Partly sunny.5 mph88%30.18 "Hg6 mi
8:00 AM64 °FRain. Partly sunny.9 mph94%30.15 "Hg4 mi
7:00 AM66 °FPartly sunny.2 mph78%30.09 "HgN/A
2:00 AM68 °FPassing clouds.7 mph78%30.07 "HgN/A
1:30 AM68 °FPassing clouds.6 mph78%30.07 "HgN/A
11:30 PM
Sun, Sep 25
68 °FPassing clouds.7 mph78%30.12 "HgN/A
10:30 PM68 °FPassing clouds.7 mph78%30.12 "HgN/A
6:30 PM70 °FPassing clouds.15 mph69%30.01 "HgN/A
5:00 PM81 °FScattered clouds.7 mph39%29.95 "HgN/A
4:00 PM82 °FScattered clouds.6 mph37%29.95 "HgN/A
2:30 PM84 °FScattered clouds.6 mph33%29.98 "HgN/A
2:00 PM86 °FScattered clouds.7 mph33%29.98 "HgN/A
12:30 PM82 °FScattered clouds.12 mph42%30.07 "HgN/A
12:00 PM82 °FScattered clouds.12 mph37%30.09 "HgN/A
11:00 AM79 °FPartly sunny.7 mph51%30.12 "HgN/A
10:00 AM77 °FWarm.5 mph54%30.15 "Hg0 mi
Weather by CustomWeather, © 2016

See weather overviewHow to use our weather pages